ARG1523 SACO-SABE

Flight info

Callsign ARG1523
Flight time 0h 58m
Altitude 37000
Route UTRAX1C UTRAX UW24 SNT SNT9R
Aircraft B738/M-SDE2E3FGHIRWXY/LB1

Departure

Time 2026-05-04 14:06
Airport Ingeniero Aeronáutico Ambrosio L.V. Taravella International Airport (SACO)

Arrival

Time 2026-05-04 15:05
Airport Aeroparque Jorge Newbery (SABE)
Time Latitude Longitude Altitude Speed Heading
2026-05-04 13:41 -31.31547 -64.21170 1609 ft 0 kts 269°
2026-05-04 13:58 -31.31547 -64.21123 1609 ft 3 kts 269°
2026-05-04 13:58 -31.31541 -64.21084 1609 ft 3 kts 225°
2026-05-04 13:58 -31.31525 -64.21072 1609 ft 3 kts 193°
2026-05-04 13:59 -31.31508 -64.21069 1609 ft 1 kts 180°
2026-05-04 13:59 -31.31502 -64.21069 1609 ft 0 kts 180°
2026-05-04 14:01 -31.31563 -64.21077 1609 ft 8 kts 200°
2026-05-04 14:02 -31.31609 -64.21092 1609 ft 4 kts 195°
2026-05-04 14:02 -31.31663 -64.21098 1609 ft 9 kts 175°
2026-05-04 14:02 -31.31717 -64.21094 1609 ft 7 kts 175°
2026-05-04 14:02 -31.31786 -64.21043 1609 ft 13 kts 141°
2026-05-04 14:03 -31.31871 -64.21023 1609 ft 12 kts 178°
2026-05-04 14:03 -31.31956 -64.21022 1609 ft 12 kts 179°
2026-05-04 14:03 -31.32038 -64.21021 1609 ft 12 kts 179°
2026-05-04 14:03 -31.32144 -64.21019 1609 ft 16 kts 179°
2026-05-04 14:04 -31.32349 -64.21017 1609 ft 14 kts 179°
2026-05-04 14:04 -31.32430 -64.20977 1609 ft 13 kts 123°
2026-05-04 14:04 -31.32444 -64.20877 1609 ft 13 kts 90°
2026-05-04 14:05 -31.32428 -64.20807 1609 ft 1 kts 356°
2026-05-04 14:05 -31.32400 -64.20807 1609 ft 13 kts
2026-05-04 14:05 -31.32116 -64.20811 1609 ft 74 kts
2026-05-04 14:06 -31.31379 -64.20821 1610 ft 135 kts 359°
2026-05-04 14:06 -31.30290 -64.20838 1781 ft 170 kts 360°
2026-05-04 14:06 -31.29060 -64.20834 2466 ft 177 kts
2026-05-04 14:06 -31.27845 -64.20808 3259 ft 178 kts
2026-05-04 14:07 -31.26653 -64.20405 3796 ft 183 kts 28°
2026-05-04 14:07 -31.25759 -64.19328 4275 ft 194 kts 55°
2026-05-04 14:07 -31.25314 -64.17768 4641 ft 208 kts 76°
2026-05-04 14:07 -31.25010 -64.16097 5124 ft 215 kts 76°
2026-05-04 14:08 -31.24686 -64.14353 5639 ft 222 kts 76°
2026-05-04 14:08 -31.24414 -64.12567 6242 ft 227 kts 86°
2026-05-04 14:08 -31.24662 -64.10708 6705 ft 239 kts 111°
2026-05-04 14:08 -31.25388 -64.08892 7117 ft 256 kts 122°
2026-05-04 14:09 -31.27322 -64.05212 8344 ft 272 kts 128°
2026-05-04 14:09 -31.28508 -64.03481 9062 ft 274 kts 137°
2026-05-04 14:10 -31.31421 -64.00215 9959 ft 307 kts 142°
2026-05-04 14:10 -31.32462 -63.99077 10374 ft 312 kts 142°
2026-05-04 14:10 -31.34077 -63.97295 10845 ft 329 kts 142°
2026-05-04 14:10 -31.35787 -63.95393 11128 ft 349 kts 141°
2026-05-04 14:11 -31.37577 -63.93391 11596 ft 361 kts 141°
2026-05-04 14:11 -31.41268 -63.89252 12953 ft 372 kts 142°
2026-05-04 14:11 -31.43150 -63.87140 13651 ft 377 kts 142°
2026-05-04 14:12 -31.45052 -63.85005 14344 ft 382 kts 142°
2026-05-04 14:12 -31.46974 -63.82845 15067 ft 385 kts 142°
2026-05-04 14:12 -31.50895 -63.78473 16494 ft 393 kts 143°
2026-05-04 14:13 -31.52883 -63.76250 17179 ft 396 kts 142°
2026-05-04 14:13 -31.54885 -63.74005 17844 ft 400 kts 142°
2026-05-04 14:13 -31.56906 -63.71737 18491 ft 404 kts 142°
2026-05-04 14:13 -31.58943 -63.69449 19122 ft 407 kts 142°
2026-05-04 14:14 -31.60998 -63.67144 19764 ft 410 kts 143°
2026-05-04 14:14 -31.65152 -63.62498 21019 ft 414 kts 144°
2026-05-04 14:14 -31.67267 -63.60192 21631 ft 417 kts 144°
2026-05-04 14:15 -31.71524 -63.55496 22801 ft 422 kts 144°
2026-05-04 14:15 -31.75793 -63.50758 23907 ft 427 kts 144°
2026-05-04 14:16 -31.80159 -63.45902 24949 ft 433 kts 144°
2026-05-04 14:16 -31.82326 -63.43489 25377 ft 437 kts 144°
2026-05-04 14:17 -31.86783 -63.38528 26230 ft 445 kts 144°
2026-05-04 14:17 -31.88990 -63.35933 26639 ft 453 kts 140°
2026-05-04 14:17 -31.93083 -63.30114 27416 ft 467 kts 135°
2026-05-04 14:18 -31.95064 -63.27068 27788 ft 471 kts 135°
2026-05-04 14:18 -31.99115 -63.20924 28506 ft 478 kts 135°
2026-05-04 14:19 -32.03252 -63.14706 29183 ft 486 kts 136°
2026-05-04 14:19 -32.05345 -63.11566 29512 ft 489 kts 136°
2026-05-04 14:19 -32.07456 -63.08402 29832 ft 493 kts 136°
2026-05-04 14:19 -32.09585 -63.05211 30145 ft 496 kts 136°
2026-05-04 14:20 -32.11738 -63.02020 30450 ft 499 kts 136°
2026-05-04 14:20 -32.13908 -62.98798 30747 ft 503 kts 136°
2026-05-04 14:20 -32.16086 -62.95553 31033 ft 506 kts 136°
2026-05-04 14:21 -32.20476 -62.88986 31640 ft 511 kts 136°
2026-05-04 14:21 -32.22673 -62.85693 32086 ft 509 kts 136°
2026-05-04 14:21 -32.24855 -62.82416 32578 ft 507 kts 136°
2026-05-04 14:21 -32.27031 -62.79146 33027 ft 505 kts 136°
2026-05-04 14:22 -32.29198 -62.75886 33457 ft 503 kts 136°
2026-05-04 14:22 -32.31346 -62.72650 34097 ft 495 kts 136°
2026-05-04 14:22 -32.33452 -62.69477 34752 ft 488 kts 136°
2026-05-04 14:22 -32.35542 -62.66324 35214 ft 485 kts 136°
2026-05-04 14:23 -32.39664 -62.60100 35971 ft 482 kts 135°
2026-05-04 14:23 -32.41729 -62.56976 36334 ft 481 kts 135°
2026-05-04 14:23 -32.43783 -62.53868 36706 ft 479 kts 135°
2026-05-04 14:24 -32.45840 -62.50753 36991 ft 480 kts 135°
2026-05-04 14:24 -32.49996 -62.44473 37025 ft 489 kts 135°
2026-05-04 14:25 -32.54237 -62.38050 37024 ft 499 kts 135°
2026-05-04 14:25 -32.60635 -62.28286 37023 ft 499 kts 134°
2026-05-04 14:26 -32.64890 -62.21779 37024 ft 499 kts 134°
2026-05-04 14:26 -32.69142 -62.15264 37023 ft 499 kts 134°
2026-05-04 14:27 -32.73155 -62.08489 37021 ft 503 kts 130°
2026-05-04 14:27 -32.77094 -62.01620 37002 ft 502 kts 131°
2026-05-04 14:28 -32.81028 -61.94823 36994 ft 502 kts 131°
2026-05-04 14:28 -32.84996 -61.87978 36994 ft 502 kts 131°
2026-05-04 14:29 -32.92969 -61.74312 36994 ft 502 kts 131°
2026-05-04 14:30 -32.96946 -61.67467 36994 ft 502 kts 131°
2026-05-04 14:31 -33.02873 -61.57223 36994 ft 502 kts 131°
2026-05-04 14:32 -33.10795 -61.43488 36993 ft 502 kts 131°
2026-05-04 14:32 -33.14780 -61.36601 36994 ft 506 kts 130°
2026-05-04 14:33 -33.18751 -61.29665 36994 ft 506 kts 130°
2026-05-04 14:33 -33.22713 -61.22725 36994 ft 506 kts 130°
2026-05-04 14:34 -33.26677 -61.15775 36994 ft 505 kts 130°
2026-05-04 14:34 -33.30631 -61.08815 36994 ft 505 kts 130°
2026-05-04 14:35 -33.34527 -61.01901 36994 ft 506 kts 130°
2026-05-04 14:35 -33.38452 -60.94917 36994 ft 506 kts 130°
2026-05-04 14:36 -33.42371 -60.87924 36994 ft 505 kts 130°
2026-05-04 14:36 -33.46286 -60.80920 36994 ft 505 kts 130°
2026-05-04 14:37 -33.50184 -60.73930 36994 ft 506 kts 130°
2026-05-04 14:37 -33.54077 -60.66939 36994 ft 501 kts 130°
2026-05-04 14:38 -33.57957 -60.60028 36994 ft 499 kts 130°
2026-05-04 14:38 -33.61799 -60.53152 36991 ft 486 kts 130°
2026-05-04 14:38 -33.63647 -60.49832 36986 ft 470 kts 130°
2026-05-04 14:39 -33.65405 -60.46667 36982 ft 456 kts 130°
2026-05-04 14:39 -33.67147 -60.43556 36979 ft 441 kts 131°
2026-05-04 14:39 -33.68828 -60.40547 36928 ft 429 kts 131°
2026-05-04 14:40 -33.72193 -60.34468 35133 ft 452 kts 131°
2026-05-04 14:40 -33.73968 -60.31248 33954 ft 470 kts 132°
2026-05-04 14:40 -33.75797 -60.27925 33029 ft 479 kts 132°
2026-05-04 14:40 -33.77634 -60.24585 32464 ft 478 kts 133°
2026-05-04 14:41 -33.79462 -60.21260 32046 ft 473 kts 133°
2026-05-04 14:41 -33.81244 -60.18018 31597 ft 469 kts 134°
2026-05-04 14:41 -33.84816 -60.11518 30686 ft 462 kts 134°
2026-05-04 14:42 -33.88399 -60.05113 29848 ft 454 kts 134°
2026-05-04 14:42 -33.90134 -60.02001 29454 ft 451 kts 134°
2026-05-04 14:42 -33.91869 -59.98885 29049 ft 447 kts 134°
2026-05-04 14:43 -33.93588 -59.95793 28646 ft 443 kts 134°
2026-05-04 14:43 -33.95295 -59.92719 28232 ft 439 kts 134°
2026-05-04 14:43 -33.96979 -59.89684 27822 ft 435 kts 134°
2026-05-04 14:43 -33.98655 -59.86660 27403 ft 432 kts 134°
2026-05-04 14:44 -34.00320 -59.83655 26902 ft 431 kts 134°
2026-05-04 14:44 -34.01986 -59.80646 26397 ft 430 kts 134°
2026-05-04 14:44 -34.03653 -59.77648 25833 ft 429 kts 134°
2026-05-04 14:44 -34.05332 -59.74690 25236 ft 429 kts 134°
2026-05-04 14:45 -34.07000 -59.71714 24912 ft 423 kts 134°
2026-05-04 14:45 -34.08636 -59.68771 24379 ft 422 kts 134°
2026-05-04 14:45 -34.10266 -59.65821 23705 ft 425 kts 133°
2026-05-04 14:45 -34.11903 -59.62851 23100 ft 425 kts 133°
2026-05-04 14:46 -34.13543 -59.59869 22430 ft 427 kts 132°
2026-05-04 14:46 -34.15192 -59.56872 21755 ft 429 kts 132°
2026-05-04 14:46 -34.16860 -59.53876 21079 ft 430 kts 132°
2026-05-04 14:46 -34.18543 -59.50891 20405 ft 431 kts 132°
2026-05-04 14:47 -34.20239 -59.47910 19835 ft 430 kts 131°
2026-05-04 14:47 -34.21846 -59.44893 19651 ft 420 kts 129°
2026-05-04 14:47 -34.23217 -59.42078 19527 ft 409 kts 128°
2026-05-04 14:47 -34.24690 -59.39221 19433 ft 394 kts 130°
2026-05-04 14:48 -34.26176 -59.36460 19364 ft 381 kts 131°
2026-05-04 14:48 -34.27594 -59.33805 19299 ft 369 kts 131°
2026-05-04 14:48 -34.28934 -59.31278 19275 ft 351 kts 131°
2026-05-04 14:48 -34.30211 -59.28861 19262 ft 330 kts 131°
2026-05-04 14:49 -34.31409 -59.26586 19255 ft 315 kts 132°
2026-05-04 14:49 -34.32573 -59.24373 19266 ft 308 kts 132°
2026-05-04 14:49 -34.33727 -59.22175 18990 ft 313 kts 132°
2026-05-04 14:49 -34.34923 -59.19895 18373 ft 328 kts 131°
2026-05-04 14:50 -34.36173 -59.17509 17609 ft 344 kts 130°
2026-05-04 14:50 -34.37492 -59.14988 16768 ft 362 kts 129°
2026-05-04 14:50 -34.38855 -59.12385 16078 ft 372 kts 128°
2026-05-04 14:50 -34.40269 -59.09750 15631 ft 372 kts 128°
2026-05-04 14:51 -34.41668 -59.07121 15275 ft 370 kts 128°
2026-05-04 14:51 -34.43047 -59.04502 14910 ft 368 kts 127°
2026-05-04 14:51 -34.44418 -59.01883 14540 ft 366 kts 127°
2026-05-04 14:51 -34.45751 -58.99329 14034 ft 360 kts 127°
2026-05-04 14:52 -34.47067 -58.96710 13419 ft 360 kts 122°
2026-05-04 14:52 -34.48048 -58.93917 12884 ft 358 kts 115°
2026-05-04 14:52 -34.48963 -58.91176 12352 ft 353 kts 116°
2026-05-04 14:52 -34.49876 -58.88433 11816 ft 349 kts 116°
2026-05-04 14:53 -34.50772 -58.85735 11285 ft 344 kts 116°
2026-05-04 14:53 -34.51661 -58.83053 10753 ft 340 kts 116°
2026-05-04 14:53 -34.52248 -58.81281 10425 ft 336 kts 116°
2026-05-04 14:53 -34.53096 -58.78712 10074 ft 326 kts 116°
2026-05-04 14:54 -34.53943 -58.76147 9652 ft 320 kts 116°
2026-05-04 14:54 -34.54769 -58.73645 9208 ft 324 kts 116°
2026-05-04 14:54 -34.55618 -58.71069 8836 ft 324 kts 115°
2026-05-04 14:54 -34.56448 -58.68546 8471 ft 323 kts 115°
2026-05-04 14:55 -34.57287 -58.65998 8107 ft 324 kts 115°
2026-05-04 14:55 -34.58136 -58.63449 7716 ft 328 kts 114°
2026-05-04 14:55 -34.58952 -58.60880 7338 ft 327 kts 114°
2026-05-04 14:55 -34.59816 -58.58341 6959 ft 326 kts 115°
2026-05-04 14:56 -34.60685 -58.55801 6574 ft 325 kts 115°
2026-05-04 14:56 -34.61251 -58.54119 6319 ft 324 kts 114°
2026-05-04 14:56 -34.62379 -58.50722 5795 ft 323 kts 114°
2026-05-04 14:56 -34.62930 -58.49047 5535 ft 322 kts 114°
2026-05-04 14:57 -34.63755 -58.46531 5166 ft 320 kts 113°
2026-05-04 14:57 -34.64568 -58.44046 5018 ft 309 kts 113°
2026-05-04 14:57 -34.65332 -58.41704 4764 ft 288 kts 113°
2026-05-04 14:57 -34.66044 -58.39520 4501 ft 270 kts 113°
2026-05-04 14:58 -34.66713 -58.37466 4314 ft 251 kts 113°
2026-05-04 14:58 -34.67338 -58.35543 4232 ft 239 kts 113°
2026-05-04 14:58 -34.67935 -58.33709 4151 ft 229 kts 113°
2026-05-04 14:58 -34.68514 -58.31931 3901 ft 226 kts 112°
2026-05-04 14:59 -34.69093 -58.30152 3608 ft 226 kts 112°
2026-05-04 14:59 -34.69647 -58.28356 3327 ft 225 kts 105°
2026-05-04 14:59 -34.68823 -58.25218 2860 ft 193 kts 25°
2026-05-04 15:00 -34.67597 -58.25029 2604 ft 173 kts 342°
2026-05-04 15:00 -34.66573 -58.25652 2387 ft 164 kts 324°
2026-05-04 15:00 -34.65698 -58.26603 2000 ft 172 kts 316°
2026-05-04 15:01 -34.64107 -58.28551 1866 ft 153 kts 315°
2026-05-04 15:01 -34.63355 -58.29474 1864 ft 152 kts 315°
2026-05-04 15:01 -34.62646 -58.30345 1835 ft 141 kts 314°
2026-05-04 15:01 -34.61980 -58.31162 1795 ft 132 kts 313°
2026-05-04 15:02 -34.61338 -58.31954 1712 ft 126 kts 312°
2026-05-04 15:02 -34.60815 -58.32779 1674 ft 124 kts 304°
2026-05-04 15:02 -34.60339 -58.33650 1507 ft 125 kts 303°
2026-05-04 15:02 -34.59858 -58.34521 1333 ft 124 kts 304°
2026-05-04 15:03 -34.59376 -58.35388 1164 ft 123 kts 304°
2026-05-04 15:03 -34.58898 -58.36245 999 ft 124 kts 304°
2026-05-04 15:03 -34.58410 -58.37120 832 ft 127 kts 304°
2026-05-04 15:03 -34.57903 -58.38033 639 ft 132 kts 304°
2026-05-04 15:04 -34.57373 -58.38993 357 ft 146 kts 304°
2026-05-04 15:04 -34.56803 -58.40002 186 ft 143 kts 304°
2026-05-04 15:04 -34.56250 -58.40989 47 ft 139 kts 304°
2026-05-04 15:04 -34.55770 -58.41849 27 ft 98 kts 304°
2026-05-04 15:05 -34.55518 -58.42299 26 ft 31 kts 303°
2026-05-04 15:05 -34.55452 -58.42417 26 ft 15 kts 304°
2026-05-04 15:05 -34.55406 -58.42497 26 ft 8 kts 311°
2026-05-04 15:05 -34.55362 -58.42495 26 ft 7 kts 48°
2026-05-04 15:06 -34.55355 -58.42438 26 ft 7 kts 98°
2026-05-04 15:06 -34.55364 -58.42380 26 ft 7 kts 110°
2026-05-04 15:06 -34.55404 -58.42309 26 ft 13 kts 127°
2026-05-04 15:07 -34.55511 -58.42138 26 ft 12 kts 127°
2026-05-04 15:07 -34.55562 -58.42056 26 ft 12 kts 126°
2026-05-04 15:07 -34.55609 -58.41976 26 ft 11 kts 124°
2026-05-04 15:07 -34.55653 -58.41898 26 ft 11 kts 124°
2026-05-04 15:08 -34.55695 -58.41824 26 ft 10 kts 124°
2026-05-04 15:08 -34.55733 -58.41751 26 ft 10 kts 116°
2026-05-04 15:08 -34.55764 -58.41677 26 ft 10 kts 116°
2026-05-04 15:08 -34.55793 -58.41606 26 ft 9 kts 116°
2026-05-04 15:09 -34.55821 -58.41537 26 ft 9 kts 116°
2026-05-04 15:09 -34.55848 -58.41471 26 ft 8 kts 116°
2026-05-04 15:09 -34.55875 -58.41409 26 ft 8 kts 118°
2026-05-04 15:10 -34.55895 -58.41308 26 ft 6 kts 49°
2026-05-04 15:10 -34.55870 -58.41287 26 ft 3 kts 31°
2026-05-04 15:10 -34.55833 -58.41285 26 ft 3 kts 313°
2026-05-04 15:11 -34.55824 -58.41302 26 ft 0 kts 302°
2026-05-04 15:11 -34.55817 -58.41314 26 ft 6 kts 302°
2026-05-04 15:11 -34.55812 -58.41351 26 ft 4 kts 234°
2026-05-04 15:11 -34.55830 -58.41365 26 ft 1 kts 210°
2026-05-04 15:12 -34.55836 -58.41369 26 ft 1 kts 211°
2026-05-04 15:12 -34.55839 -58.41372 26 ft 0 kts 210°